{"data":{"norad_id":63320,"intl_designator":"2025-057P","name":"STARLINK-33671","alt_names":[],"object_type":"PAYLOAD","status":"ACTIVE","operator":null,"country":"US","launch_date":"2025-03-18","launch_site_code":"AFETR","launch_vehicle":null,"mission":null,"orbit_class":"UNKNOWN","rcs_meters":null,"size_class":null,"mass_kg":null,"dimensions":null,"purposes":["comms"],"wikipedia_slug":null,"has_3d_model":false,"image_url":null,"decayed_at":null,"tle_current":{"epoch":"2026-09-20T18:12:39.938976Z","epoch_age_seconds":136526,"freshness":"FRESH","line1":"1 63320U 25057P   26263.75879559  .00008947  00000+0  33424-3 0  9993","line2":"2 63320  43.0005 358.5676 0001577 270.8040  89.2630 15.27580596 85738","mean_motion":15.27580596,"eccentricity":0.0001577,"inclination_deg":43.0005,"raan_deg":358.5676,"arg_perigee_deg":270.804,"mean_anomaly_deg":89.263,"bstar":0.00033424,"rev_number":8573,"period_min":94.266711934589,"perigee_km":481.96530263592,"apogee_km":484.12932016773,"semimajor_km":6861.1843114018,"source":"CELESTRAK","updated_at":"2026-09-21T09:00:34.969714Z"}}}